EW4415 Weather Reports


Display with metric or nautical units.
time (UTC)temp
F
wind
direction
speed
MPH
gust
MPH
rain 1hr
in
rain 24hr
in
rain mn
in
humidity
%
barometer
mb
20260904190028 49 292 0.0 0.0 0.01 0.08 0.08 1 996.8
20260904184526 49 292 0.0 0.0 0.01 0.08 0.08 1 997.0
20260904183019 50 292 0.0 0.0 0.01 0.08 0.08 1 997.2
20260904181515 51 292 0.0 0.0 0.01 0.08 0.08 1 997.1
20260904180013 51 292 0.0 0.0 0.00 0.07 0.07 1 997.1
20260904174517 52 292 0.0 0.0 0.00 0.07 0.07 1 997.2
20260904173003 53 292 0.0 0.0 0.00 0.07 0.07 1 997.2
20260904171605 54 292 0.0 0.0 0.00 0.07 0.07 1 997.2
20260904170104 54 292 0.0 0.0 0.00 0.07 0.07 1 997.3
20260904164549 55 292 0.0 0.0 0.00 0.07 0.07 1 997.4
20260904163046 55 292 0.0 0.0 0.00 0.07 0.07 1 997.4
20260904161540 56 292 0.0 0.0 0.00 0.07 0.07 1 997.4
20260904160037 56 292 0.0 0.0 0.00 0.07 0.07 1 997.4
20260904154531 57 294 0.0 2.0 0.00 0.07 0.07 1 997.4
20260904153031 57 311 0.0 0.0 0.00 0.07 0.07 1 997.5
20260904151521 57 311 0.0 0.0 0.00 0.07 0.07 1 997.5
20260904150026 57 267 0.0 2.0 0.00 0.07 0.07 1 997.5
20260904144514 57 288 0.0 1.0 0.00 0.07 0.07 1 997.5
20260904143026 57 188 0.0 0.0 0.00 0.07 0.07 1 997.6
20260904141504 57 188 0.0 0.0 0.07 0.07 0.07 1 997.7
20260904140101 56 262 0.0 0.0 0.07 0.07 0.07 1 997.8
20260904134604 56 262 0.0 0.0 0.07 0.07 0.07 1 997.8
20260904133051 58 265 0.0 2.0 0.07 0.07 0.07 8 997.7
20260904131546 63 80 0.0 2.0 0.00 0.00 0.00 46 997.6
20260904130042 64 109 0.0 4.0 0.00 0.00 0.00 52 997.5
20260904124549 64 155 0.0 8.0 0.00 0.00 0.00 54 997.5
20260904123032 63 154 0.0 0.0 0.00 0.00 0.00 57 997.5
20260904121528 62 196 0.0 1.0 0.00 0.00 0.00 58 997.6
20260904120024 62 46 0.0 0.0 0.00 0.00 0.00 56 997.6
20260904114526 62 35 0.0 0.0 0.00 0.00 0.00 58 997.7
20260904113031 61 35 0.0 0.0 0.00 0.00 0.00 57 997.7
20260904111512 62 35 0.0 0.0 0.00 0.00 0.00 57 997.8
20260904110007 63 35 0.0 3.0 0.00 0.00 0.00 58 997.9
20260904104504 63 60 0.0 0.0 0.00 0.00 0.00 54 997.8
20260904103058 61 32 0.0 4.0 0.00 0.00 0.00 54 998.0
20260904101558 61 67 0.0 3.0 0.00 0.00 0.00 53 998.2
20260904100050 61 95 0.0 1.0 0.00 0.00 0.00 47 998.4
20260904094557 61 44 0.0 1.0 0.00 0.00 0.00 45 998.4
20260904093040 61 44 0.0 5.0 0.00 0.00 0.00 36 998.6
20260904091536 60 291 0.0 2.0 0.00 0.00 0.00 10 998.6
20260904090032 59 113 0.0 0.0 0.00 0.00 0.00 1 998.7
20260904084528 59 88 0.0 0.0 0.00 0.00 0.00 1 998.7
20260904083023 58 134 0.0 0.0 0.00 0.00 0.00 1 998.7
20260904081518 57 133 0.0 0.0 0.00 0.00 0.00 1 998.9
20260904080014 57 140 0.0 1.0 0.00 0.00 0.00 1 999.1
20260904074511 57 311 0.0 0.0 0.00 0.00 0.00 1 999.1
20260904073004 56 290 0.0 0.0 0.00 0.00 0.00 1 999.3
20260904071503 54 290 0.0 0.0 0.00 0.00 0.00 1 999.4
20260904070108 53 290 0.0 0.0 0.00 0.00 0.00 1 999.6
20260904064552 52 290 0.0 0.0 0.00 0.00 0.00 1 999.8
20260904063054 51 290 0.0 0.0 0.00 0.00 0.00 1 999.8
20260904061543 49 290 0.0 0.0 0.00 0.00 0.00 1 999.8
20260904060038 48 290 0.0 0.0 0.00 0.00 0.00 1 999.9
20260904054535 47 290 0.0 0.0 0.00 0.00 0.00 1 1000.1
20260904053036 46 290 0.0 0.0 0.00 0.00 0.00 1 1000.2
20260904051533 45 290 0.0 0.0 0.00 0.00 0.00 1 1000.4
20260904050032 44 290 0.0 0.0 0.00 0.00 0.00 1 1000.5
20260904044519 43 290 0.0 0.0 0.00 0.00 0.00 1 1000.7
20260904043013 43 290 0.0 0.0 0.00 0.00 0.00 1 1000.9
20260904041508 42 290 0.0 0.0 0.00 0.00 0.00 1 1001.2
20260904040004 42 290 0.0 0.0 0.00 0.00 0.00 1 1001.4
20260904034600 42 290 0.0 0.0 0.00 0.00 0.00 1 1001.5
20260904033055 42 290 0.0 0.0 0.00 0.00 0.00 1 1001.7
20260904031551 42 290 0.0 0.0 0.00 0.00 0.00 1 1001.8
20260904030047 42 290 0.0 0.0 0.00 0.00 0.00 1 1002.0
20260904024544 41 290 0.0 0.0 0.00 0.00 0.00 1 1002.1
20260904023038 41 290 0.0 0.0 0.00 0.00 0.00 1 1002.3
20260904021539 41 290 0.0 0.0 0.00 0.00 0.00 1 1002.4
20260904020030 41 290 0.0 0.0 0.00 0.00 0.00 1 1002.4
20260904014526 42 290 0.0 0.0 0.00 0.00 0.00 1 1002.5
20260904013021 42 290 0.0 0.0 0.00 0.00 0.00 1 1002.7
20260904011524 42 290 0.0 0.0 0.00 0.00 0.00 1 1002.8
20260904010013 42 290 0.0 0.0 0.00 0.00 0.00 1 1003.1
20260904004513 42 290 0.0 0.0 0.00 0.00 0.00 1 1003.3
20260904003004 42 290 0.0 0.0 0.00 0.00 0.00 1 1003.4
20260904001601 43 290 0.0 0.0 0.00 0.00 0.00 1 1003.5
20260904000138 43 290 0.0 0.0 0.00 0.00 0.00 1 1003.6
20260903234553 43 290 0.0 0.0 0.00 0.00 0.00 1 1003.8
20260903233047 43 290 0.0 0.0 0.00 0.00 0.00 1 1003.9
20260903231547 44 290 0.0 0.0 0.00 0.00 0.00 1 1004.1
20260903230038 44 290 0.0 0.0 0.00 0.00 0.00 1 1004.2
20260903224544 44 290 0.0 0.0 0.00 0.00 0.00 1 1004.3
20260903223033 45 290 0.0 0.0 0.00 0.00 0.00 1 1004.4
20260903221525 45 290 0.0 0.0 0.00 0.00 0.00 1 1004.6
20260903220021 46 290 0.0 0.0 0.00 0.00 0.00 1 1004.6
20260903214522 46 290 0.0 0.0 0.00 0.00 0.00 1 1004.8
20260903213021 47 290 0.0 0.0 0.00 0.00 0.00 1 1004.9
20260903211507 48 290 0.0 0.0 0.00 0.00 0.00 1 1004.9
20260903210002 48 290 0.0 0.0 0.00 0.00 0.00 1 1005.0
20260903204559 49 290 0.0 0.0 0.00 0.00 0.00 1 1004.9
20260903203053 50 290 0.0 0.0 0.00 0.00 0.00 1 1004.9
20260903201550 50 290 0.0 0.0 0.00 0.00 0.00 1 1005.1
20260903200046 51 290 0.0 0.0 0.00 0.00 0.00 1 1005.2
20260903194548 51 290 0.0 0.0 0.00 0.00 0.00 1 1005.2
20260903193042 52 290 0.0 0.0 0.00 0.00 0.00 1 1005.2
20260903191541 52 290 0.0 0.0 0.00 0.00 0.00 1 1005.0